Sussex, NJ

9:22 AM EST on December 03, 2016 (GMT -0500)
Sussex

Weather History for KFWN - June, 2013

Change the Weather History Date:

Wednesday, June 26, 2013

  Actual Average Record
Temperature  
Mean Temperature 74 °F -  
Max Temperature 82 °F 80 °F 98 °F (1952)
Min Temperature 66 °F 54 °F 39 °F (1979)
Cooling Degree Days 8    
Growing Degree Days 24 (Base 50)    
Moisture  
Dew Point 67 °F    
Average Humidity 77    
Maximum Humidity 97    
Minimum Humidity 64    
Precipitation  
Precipitation 0.00 in - - ()
Sea Level Pressure  
Sea Level Pressure 29.83 in    
Wind  
Wind Speed 3 mph (SW)    
Max Wind Speed 9 mph    
Max Gust Speed -    
Visibility 10 miles    
Events Thunderstorm    
Averages and records for this station are not official NWS values.
T = Trace of Precipitation, MM = Missing Value Source: NWS Daily Summary

Daily Weather History Graph

Daily Weather History Graph

Search for Another Location

Airport or City:

Trip Planner

Search our weather history database for the weather conditions in past years. The results will help you decide how hot, cold, wet, or windy it might be!

Date:

Astronomy

Jun. 26, 2013 Rise Set
Actual Time 5:27 AM EDT 8:35 PM EDT
Civil Twilight 4:53 AM EDT 9:09 PM EDT
Nautical Twilight 4:10 AM EDT 9:52 PM EDT
Astronomical Twilight 3:18 AM EDT 10:43 PM EDT
Moon 10:54 PM EDT (6/26) 9:18 AM EDT (6/26)
Length of Visible Light 16h 15m
Length of Day
15h 08m
Waning Gibbous, 85% of the Moon is Illuminated
Jun 26
Waning Gibbous
Jun 30
Last Quarter
Jul 8
New
Jul 15
First Quarter
Jul 22
Full

Hourly Weather History & Observations

Time (EDT) Temp. Heat Index Dew Point Humidity Pressure Visibility Wind Dir Wind Speed Gust Speed Precip Events Conditions
12:53 AM 73.0 °F - 66.9 °F 81% 29.80 in 10.0 mi Calm Calm - N/A   Clear
1:53 AM 73.0 °F - 68.0 °F 84% 29.80 in 10.0 mi SW 6.9 mph - N/A   Clear
2:53 AM 72.0 °F - 68.0 °F 87% 29.81 in 10.0 mi SW 4.6 mph - N/A   Clear
3:53 AM 72.0 °F - 64.9 °F 78% 29.81 in 10.0 mi SSW 4.6 mph - N/A   Clear
4:53 AM 70.0 °F - 64.9 °F 84% 29.82 in 10.0 mi SW 4.6 mph - N/A   Partly Cloudy
5:53 AM 69.1 °F - 64.0 °F 84% 29.83 in 10.0 mi Calm Calm - 0.00 in   Clear
6:53 AM 70.0 °F - 64.9 °F 84% 29.85 in 10.0 mi SSW 3.5 mph - N/A   Clear
7:53 AM 73.9 °F - 64.9 °F 73% 29.84 in 10.0 mi SSE 3.5 mph - 0.00 in   Clear
8:53 AM 77.0 °F - 64.9 °F 66% 29.85 in 10.0 mi WSW 3.5 mph - N/A   Clear
9:53 AM 78.1 °F - 64.9 °F 64% 29.84 in 10.0 mi Calm Calm - N/A   Clear
10:53 AM 75.9 °F - 66.0 °F 71% 29.84 in 10.0 mi SSW 5.8 mph - N/A   Clear
11:53 AM 73.9 °F - 66.0 °F 76% 29.85 in 10.0 mi SW 6.9 mph - N/A   Mostly Cloudy
12:53 PM 73.9 °F - 66.9 °F 79% 29.86 in 10.0 mi SW 3.5 mph - N/A   Partly Cloudy
1:53 PM 75.9 °F - 68.0 °F 76% 29.85 in 10.0 mi SW 8.1 mph - N/A   Clear
2:53 PM 79.0 °F - 68.0 °F 69% 29.83 in 10.0 mi SW 4.6 mph - N/A   Clear
3:53 PM 81.0 °F 83.8 °F 68.0 °F 65% 29.81 in 10.0 mi Variable 4.6 mph - N/A   Partly Cloudy
4:53 PM 80.1 °F 82.9 °F 69.1 °F 69% 29.80 in 10.0 mi SSW 6.9 mph - N/A   Partly Cloudy
5:53 PM 80.1 °F 82.9 °F 69.1 °F 69% 29.81 in 10.0 mi West 4.6 mph - N/A   Overcast
6:08 PM 78.8 °F - 66.2 °F 65% 29.83 in 10.0 mi NW 9.2 mph - N/A Thunderstorm Overcast
6:32 PM 78.8 °F - 66.2 °F 65% 29.82 in 10.0 mi Variable 3.5 mph - N/A   Mostly Cloudy
6:53 PM 78.1 °F - 68.0 °F 71% 29.82 in 10.0 mi Calm Calm - N/A   Mostly Cloudy
7:53 PM 75.9 °F - 69.1 °F 79% 29.82 in 10.0 mi East 4.6 mph - N/A   Clear
8:53 PM 72.0 °F - 68.0 °F 87% 29.81 in 10.0 mi Calm Calm - N/A   Clear
9:53 PM 68.0 °F - 66.9 °F 96% 29.83 in 10.0 mi Calm Calm - 0.00 in   Clear
10:53 PM 66.9 °F - 66.0 °F 97% 29.83 in 9.0 mi Calm Calm - N/A   Clear
11:53 PM 66.0 °F - 64.9 °F 96% 29.83 in 8.0 mi Calm Calm - N/A   Clear